TimeMDT,TemperatureF,Dew PointF,Humidity,Sea Level PressureIn,VisibilityMPH,Wind Direction,Wind SpeedMPH,Gust SpeedMPH,PrecipitationIn,Events,Conditions,WindDirDegrees,DateUTC
12:03 AM,32.0,10.4,41,30.34,-9999.0,SW,31.1,39.1,N/A,,Overcast,230,2012-10-06 06:03:00
12:44 AM,32.0,10.4,41,30.33,-9999.0,WSW,31.1,42.6,N/A,,Overcast,250,2012-10-06 06:44:00
1:04 AM,32.0,8.6,38,30.33,-9999.0,WSW,28.8,49.5,N/A,,Overcast,250,2012-10-06 07:04:00
1:24 AM,32.0,8.6,38,30.32,-9999.0,WSW,39.1,49.5,N/A,,Mostly Cloudy,250,2012-10-06 07:24:00
1:43 AM,32.0,8.6,38,30.32,-9999.0,WSW,33.4,51.8,N/A,,Scattered Clouds,250,2012-10-06 07:43:00
2:03 AM,32.0,8.6,38,30.31,-9999.0,West,39.1,54.1,N/A,,Clear,260,2012-10-06 08:03:00
2:24 AM,32.0,8.6,38,30.31,-9999.0,WSW,34.5,48.3,N/A,,Clear,250,2012-10-06 08:24:00
2:44 AM,30.2,6.8,37,30.32,-9999.0,WSW,29.9,41.4,N/A,,Clear,250,2012-10-06 08:44:00
3:24 AM,30.2,6.8,37,30.30,-9999.0,North,-9999.0,-,N/A,,Clear,0,2012-10-06 09:24:00
3:44 AM,30.2,6.8,37,30.30,-9999.0,North,-9999.0,-,N/A,,Clear,0,2012-10-06 09:44:00
4:04 AM,28.4,6.8,40,30.30,-9999.0,North,-9999.0,-,N/A,,Mostly Cloudy,0,2012-10-06 10:04:00
4:23 AM,28.4,6.8,40,30.29,-9999.0,North,-9999.0,-,N/A,,Overcast,0,2012-10-06 10:23:00
4:44 AM,28.4,6.8,40,30.28,-9999.0,North,-9999.0,-,N/A,,Overcast,0,2012-10-06 10:44:00
5:04 AM,28.4,6.8,40,30.29,-9999.0,North,-9999.0,-,N/A,,Overcast,0,2012-10-06 11:04:00
5:25 AM,28.4,5.0,37,30.30,-9999.0,North,-9999.0,-,N/A,,Mostly Cloudy,0,2012-10-06 11:25:00
5:44 AM,28.4,6.8,40,30.30,-9999.0,North,-9999.0,-,N/A,,Mostly Cloudy,0,2012-10-06 11:44:00
8:23 AM,26.6,5.0,40,30.33,-9999.0,North,-9999.0,-,N/A,,Unknown,0,2012-10-06 14:23:00
8:43 AM,28.4,5.0,37,30.34,-9999.0,North,-9999.0,-,N/A,,Clear,0,2012-10-06 14:43:00
9:03 AM,28.4,5.0,37,30.34,-9999.0,North,-9999.0,-,N/A,,Clear,0,2012-10-06 15:03:00
9:23 AM,28.4,6.8,40,30.34,-9999.0,WSW,25.3,33.4,N/A,,Clear,240,2012-10-06 15:23:00
9:43 AM,28.4,6.8,40,30.35,-9999.0,West,19.6,34.5,N/A,,Clear,260,2012-10-06 15:43:00
10:04 AM,30.2,6.8,37,30.34,-9999.0,West,26.5,35.7,N/A,,Clear,260,2012-10-06 16:04:00
10:23 AM,30.2,6.8,37,30.34,-9999.0,West,28.8,33.4,N/A,,Clear,260,2012-10-06 16:23:00
10:43 AM,32.0,6.8,35,30.34,-9999.0,West,28.8,43.7,N/A,,Clear,260,2012-10-06 16:43:00
11:03 AM,32.0,5.0,32,30.34,-9999.0,WSW,23.0,44.9,N/A,,Clear,250,2012-10-06 17:03:00
11:21 AM,32.0,1.4,27,30.34,-9999.0,West,38.0,49.5,N/A,,Clear,280,2012-10-06 17:21:00
11:43 AM,32.0,1.4,27,30.34,-9999.0,West,31.1,46.0,N/A,,Clear,260,2012-10-06 17:43:00
12:03 PM,32.0,-0.4,25,30.34,-9999.0,West,32.2,41.4,N/A,,Clear,270,2012-10-06 18:03:00
12:23 PM,32.0,-0.4,25,30.34,-9999.0,West,25.3,47.2,N/A,,Clear,280,2012-10-06 18:23:00
12:43 PM,33.8,1.4,25,30.34,-9999.0,West,20.7,35.7,N/A,,Clear,260,2012-10-06 18:43:00
1:02 PM,33.8,-2.2,22,30.33,-9999.0,WSW,20.7,47.2,N/A,,Clear,250,2012-10-06 19:02:00
1:23 PM,35.6,-4.0,18,30.32,-9999.0,West,34.5,41.4,N/A,,Clear,260,2012-10-06 19:23:00
1:44 PM,35.6,-9.4,14,30.31,-9999.0,West,33.4,47.2,N/A,,Clear,270,2012-10-06 19:44:00
2:03 PM,35.6,-7.6,16,30.31,-9999.0,West,29.9,39.1,N/A,,Clear,280,2012-10-06 20:03:00
2:24 PM,35.6,-7.6,16,30.30,-9999.0,West,29.9,42.6,N/A,,Clear,270,2012-10-06 20:24:00
2:43 PM,35.6,-7.6,16,30.30,-9999.0,West,35.7,42.6,N/A,,Clear,260,2012-10-06 20:43:00
3:04 PM,35.6,-5.8,17,30.30,-9999.0,West,35.7,41.4,N/A,,Clear,280,2012-10-06 21:04:00
3:23 PM,37.4,-4.0,17,30.30,-9999.0,West,32.2,41.4,N/A,,Clear,280,2012-10-06 21:23:00
4:02 PM,37.4,-4.0,17,30.30,-9999.0,West,27.6,38.0,N/A,,Clear,270,2012-10-06 22:02:00
4:23 PM,37.4,-5.8,16,30.30,-9999.0,West,32.2,43.7,N/A,,Clear,270,2012-10-06 22:23:00
4:43 PM,37.4,-5.8,16,30.30,-9999.0,West,28.8,42.6,N/A,,Clear,270,2012-10-06 22:43:00
5:03 PM,35.6,-5.8,17,30.30,-9999.0,West,33.4,41.4,N/A,,Clear,270,2012-10-06 23:03:00
5:23 PM,35.6,-7.6,16,30.30,-9999.0,West,26.5,39.1,N/A,,Clear,270,2012-10-06 23:23:00
5:42 PM,33.8,-9.4,15,30.30,-9999.0,West,33.4,38.0,N/A,,Clear,270,2012-10-06 23:42:00
6:02 PM,33.8,-9.4,15,30.31,-9999.0,West,28.8,40.3,N/A,,Clear,270,2012-10-07 00:02:00
6:23 PM,32.0,-11.2,15,30.31,-9999.0,West,27.6,34.5,N/A,,Clear,280,2012-10-07 00:23:00
6:43 PM,32.0,-11.2,15,30.32,-9999.0,West,24.2,-,N/A,,Clear,270,2012-10-07 00:43:00
7:01 PM,30.2,-11.2,16,30.33,-9999.0,North,-9999.0,-,N/A,,Clear,0,2012-10-07 01:01:00
7:22 PM,30.2,-9.4,18,30.32,-9999.0,North,-9999.0,-,N/A,,Clear,0,2012-10-07 01:22:00
7:42 PM,30.2,-9.4,18,30.33,-9999.0,North,-9999.0,-,N/A,,Clear,0,2012-10-07 01:42:00
8:02 PM,30.2,-5.8,21,30.33,-9999.0,North,-9999.0,-,N/A,,Clear,0,2012-10-07 02:02:00
8:22 PM,28.4,-4.0,25,30.33,-9999.0,North,-9999.0,-,N/A,,Clear,0,2012-10-07 02:22:00
8:43 PM,28.4,-4.0,25,30.33,-9999.0,North,-9999.0,-,N/A,,Clear,0,2012-10-07 02:43:00
9:03 PM,28.4,-4.0,25,30.33,-9999.0,North,-9999.0,-,N/A,,Clear,0,2012-10-07 03:03:00
9:24 PM,28.4,-5.8,23,30.33,-9999.0,North,-9999.0,-,N/A,,Scattered Clouds,0,2012-10-07 03:24:00
9:43 PM,28.4,-5.8,23,30.33,-9999.0,North,-9999.0,-,N/A,,Clear,0,2012-10-07 03:43:00
10:02 PM,28.4,-5.8,23,30.33,-9999.0,North,-9999.0,-,N/A,,Clear,0,2012-10-07 04:02:00
10:23 PM,26.6,-5.8,24,30.33,-9999.0,North,-9999.0,-,N/A,,Clear,0,2012-10-07 04:23:00
10:42 PM,26.6,-4.0,26,30.33,-9999.0,North,-9999.0,-,N/A,,Scattered Clouds,0,2012-10-07 04:42:00
11:03 PM,26.6,-4.0,26,30.32,-9999.0,North,-9999.0,-,N/A,,Overcast,0,2012-10-07 05:03:00
11:23 PM,26.6,-2.2,29,30.32,-9999.0,North,-9999.0,-,N/A,,Overcast,0,2012-10-07 05:23:00
11:43 PM,26.6,-0.4,31,30.31,-9999.0,North,-9999.0,-,N/A,,Overcast,0,2012-10-07 05:43:00